Météo par heure à Juruti

Ce jour, 17 Juin, Jeudi

Heure Température Précipitation Vent Pression Humidité
00:00 +24°C° 1.8 mm 1 m/s 759 mmHg 97%
01:00 +24°C° 1.8 mm 1 m/s 759 mmHg 98%
02:00 +22°C° 0 mm 0 m/s 758 mmHg 99%
03:00 +22°C° 0.1 mm 0 m/s 758 mmHg 99%
04:00 +22°C° 0.1 mm 0 m/s 758 mmHg 99%
05:00 +22°C° 0.1 mm 0 m/s 758 mmHg 99%
06:00 +23°C° 0 mm 0 m/s 759 mmHg 96%
07:00 +24°C° 0 mm 0 m/s 759 mmHg 94%
08:00 +25°C° 0 mm 0 m/s 760 mmHg 91%
09:00 +27°C° 0.1 mm 0 m/s 760 mmHg 82%
10:00 +30°C° 0.1 mm 1 m/s 760 mmHg 72%
11:00 +32°C° 0.1 mm 1 m/s 760 mmHg 63%
12:00 +33°C° 0.2 mm 1 m/s 759 mmHg 59%
13:00 +33°C° 0.2 mm 1 m/s 758 mmHg 56%
14:00 +34°C° 0.2 mm 1 m/s 757 mmHg 53%
15:00 +32°C° 0 mm 1 m/s 757 mmHg 60%
16:00 +31°C° 0 mm 1 m/s 757 mmHg 67%
17:00 +30°C° 0 mm 1 m/s 757 mmHg 74%
18:00 +28°C° 0 mm 1 m/s 757 mmHg 77%
19:00 +27°C° 0 mm 1 m/s 757 mmHg 80%
20:00 +24°C° 0 mm 0 m/s 758 mmHg 82%
21:00 +26°C° 0 mm 1 m/s 758 mmHg 84%
22:00 +26°C° 0 mm 1 m/s 759 mmHg 85%
23:00 +25°C° 0 mm 1 m/s 759 mmHg 86%

Demain, 18 Juin, Vendredi

Heure Température Précipitation Vent Pression Humidité
00:00 +25°C° 0 mm 1 m/s 759 mmHg 89%
01:00 +25°C° 0 mm 1 m/s 758 mmHg 92%
02:00 +25°C° 0 mm 1 m/s 758 mmHg 94%
03:00 +25°C° 0 mm 1 m/s 758 mmHg 95%
04:00 +24°C° 0 mm 1 m/s 758 mmHg 96%
05:00 +22°C° 0 mm 0 m/s 758 mmHg 97%
06:00 +24°C° 0 mm 0 m/s 759 mmHg 89%
07:00 +25°C° 0 mm 0 m/s 760 mmHg 82%
08:00 +27°C° 0 mm 0 m/s 760 mmHg 74%
09:00 +30°C° 0 mm 1 m/s 760 mmHg 70%
10:00 +31°C° 0 mm 1 m/s 760 mmHg 65%
11:00 +33°C° 0 mm 1 m/s 760 mmHg 61%
12:00 +33°C° 0.1 mm 1 m/s 759 mmHg 59%
13:00 +33°C° 0.1 mm 1 m/s 758 mmHg 57%
14:00 +34°C° 0.1 mm 1 m/s 757 mmHg 56%
15:00 +33°C° 0 mm 1 m/s 757 mmHg 60%
16:00 +32°C° 0 mm 1 m/s 757 mmHg 64%
17:00 +31°C° 0 mm 1 m/s 757 mmHg 68%
18:00 +28°C° 0 mm 0 m/s 757 mmHg 71%
19:00 +26°C° 0 mm 0 m/s 758 mmHg 75%
20:00 +25°C° 0 mm 0 m/s 758 mmHg 78%
21:00 +25°C° 0 mm 0 m/s 758 mmHg 79%
22:00 +27°C° 0 mm 1 m/s 759 mmHg 79%
23:00 +26°C° 0 mm 1 m/s 759 mmHg 80%

Après-demain, 19 Juin, Samedi

Heure Température Précipitation Vent Pression Humidité
00:00 +26°C° 0.3 mm 1 m/s 759 mmHg 85%
01:00 +25°C° 0.3 mm 1 m/s 759 mmHg 90%
02:00 +24°C° 0.3 mm 1 m/s 758 mmHg 94%
03:00 +24°C° 0.2 mm 1 m/s 759 mmHg 95%
04:00 +24°C° 0.2 mm 1 m/s 759 mmHg 96%
05:00 +24°C° 0.2 mm 1 m/s 759 mmHg 97%
06:00 +25°C° 0.1 mm 1 m/s 760 mmHg 94%
07:00 +26°C° 0.1 mm 2 m/s 760 mmHg 91%
08:00 +27°C° 0.1 mm 2 m/s 761 mmHg 88%
09:00 +29°C° 0 mm 2 m/s 761 mmHg 77%
10:00 +31°C° 0 mm 3 m/s 760 mmHg 66%
11:00 +34°C° 0 mm 3 m/s 760 mmHg 55%
12:00 +34°C° 0 mm 3 m/s 759 mmHg 53%
13:00 +35°C° 0 mm 3 m/s 759 mmHg 51%
14:00 +35°C° 0 mm 3 m/s 758 mmHg 50%
15:00 +34°C° 0 mm 3 m/s 758 mmHg 56%
16:00 +32°C° 0 mm 2 m/s 758 mmHg 62%
17:00 +31°C° 0 mm 2 m/s 758 mmHg 68%
18:00 +29°C° 0 mm 2 m/s 758 mmHg 73%
19:00 +28°C° 0 mm 1 m/s 759 mmHg 79%
20:00 +27°C° 0 mm 1 m/s 759 mmHg 84%
21:00 +26°C° 0 mm 1 m/s 760 mmHg 86%
22:00 +26°C° 0 mm 1 m/s 760 mmHg 87%
23:00 +26°C° 0 mm 1 m/s 760 mmHg 89%

20 Juin, Dimanche

Heure Température Précipitation Vent Pression Humidité
00:00 +25°C° 0 mm 1 m/s 760 mmHg 91%
01:00 +25°C° 0 mm 1 m/s 759 mmHg 93%
02:00 +25°C° 0 mm 1 m/s 759 mmHg 95%
03:00 +24°C° 0 mm 1 m/s 759 mmHg 95%
04:00 +24°C° 0 mm 1 m/s 759 mmHg 95%
05:00 +24°C° 0 mm 1 m/s 759 mmHg 96%
06:00 +26°C° 0 mm 1 m/s 759 mmHg 89%
07:00 +27°C° 0 mm 1 m/s 760 mmHg 82%
08:00 +28°C° 0 mm 2 m/s 760 mmHg 74%
09:00 +30°C° 0 mm 2 m/s 760 mmHg 67%
10:00 +32°C° 0 mm 2 m/s 760 mmHg 60%
11:00 +34°C° 0 mm 2 m/s 760 mmHg 53%
12:00 +34°C° 0 mm 2 m/s 759 mmHg 52%
13:00 +35°C° 0 mm 2 m/s 758 mmHg 51%
14:00 +35°C° 0 mm 2 m/s 757 mmHg 50%
15:00 +34°C° 0 mm 2 m/s 757 mmHg 55%
16:00 +32°C° 0 mm 1 m/s 757 mmHg 59%
17:00 +31°C° 0 mm 1 m/s 757 mmHg 64%
18:00 +30°C° 0 mm 1 m/s 757 mmHg 67%
19:00 +29°C° 0 mm 1 m/s 758 mmHg 69%
20:00 +28°C° 0 mm 1 m/s 758 mmHg 72%
21:00 +28°C° 0 mm 1 m/s 759 mmHg 75%
22:00 +27°C° 0 mm 1 m/s 759 mmHg 79%
23:00 +27°C° 0 mm 1 m/s 759 mmHg 82%

21 Juin, Lundi

Heure Température Précipitation Vent Pression Humidité
00:00 +27°C° 0 mm 1 m/s 759 mmHg 83%
01:00 +26°C° 0 mm 1 m/s 758 mmHg 84%
02:00 +26°C° 0 mm 1 m/s 758 mmHg 85%
03:00 +26°C° 0 mm 1 m/s 758 mmHg 88%
04:00 +25°C° 0 mm 1 m/s 758 mmHg 91%
05:00 +25°C° 0 mm 1 m/s 759 mmHg 93%
06:00 +26°C° 0 mm 1 m/s 759 mmHg 86%
07:00 +28°C° 0 mm 1 m/s 760 mmHg 79%
08:00 +29°C° 0 mm 1 m/s 760 mmHg 72%
09:00 +30°C° 0 mm 1 m/s 760 mmHg 67%
10:00 +31°C° 0 mm 1 m/s 760 mmHg 63%
11:00 +32°C° 0 mm 2 m/s 760 mmHg 58%
12:00 +34°C° 0 mm 2 m/s 759 mmHg 53%
13:00 +35°C° 0 mm 2 m/s 758 mmHg 48%
14:00 +36°C° 0 mm 2 m/s 757 mmHg 44%
15:00 +34°C° 0 mm 1 m/s 757 mmHg 49%
16:00 +33°C° 0 mm 1 m/s 757 mmHg 54%
17:00 +32°C° 0 mm 1 m/s 756 mmHg 60%
18:00 +30°C° 0 mm 1 m/s 757 mmHg 64%
19:00 +29°C° 0 mm 1 m/s 757 mmHg 68%
20:00 +28°C° 0 mm 1 m/s 758 mmHg 72%
21:00 +27°C° 0 mm 1 m/s 758 mmHg 75%
22:00 +26°C° 0 mm 1 m/s 758 mmHg 79%
23:00 +26°C° 0 mm 1 m/s 758 mmHg 83%

22 Juin, Mardi

Heure Température Précipitation Vent Pression Humidité
00:00 +26°C° 0 mm 1 m/s 758 mmHg 85%
01:00 +25°C° 0 mm 1 m/s 758 mmHg 87%
02:00 +25°C° 0 mm 1 m/s 758 mmHg 89%
03:00 +25°C° 0 mm 1 m/s 758 mmHg 90%
04:00 +25°C° 0 mm 1 m/s 758 mmHg 91%
05:00 +24°C° 0 mm 1 m/s 758 mmHg 92%
06:00 +26°C° 0 mm 1 m/s 759 mmHg 85%
07:00 +27°C° 0 mm 1 m/s 759 mmHg 79%
08:00 +29°C° 0 mm 1 m/s 760 mmHg 72%
09:00 +30°C° 0 mm 1 m/s 759 mmHg 65%
10:00 +32°C° 0 mm 2 m/s 759 mmHg 57%
11:00 +35°C° 0 mm 2 m/s 759 mmHg 50%
12:00 +35°C° 0 mm 2 m/s 758 mmHg 49%
13:00 +36°C° 0 mm 2 m/s 758 mmHg 48%
14:00 +36°C° 0 mm 2 m/s 757 mmHg 47%
15:00 +35°C° 0 mm 2 m/s 757 mmHg 51%
16:00 +34°C° 0 mm 2 m/s 756 mmHg 56%
17:00 +32°C° 0 mm 1 m/s 756 mmHg 61%
18:00 +31°C° 0 mm 1 m/s 757 mmHg 63%
19:00 +30°C° 0 mm 1 m/s 757 mmHg 66%
20:00 +29°C° 0 mm 1 m/s 757 mmHg 68%
21:00 +28°C° 0 mm 1 m/s 758 mmHg 70%
22:00 +28°C° 0 mm 1 m/s 758 mmHg 73%
23:00 +27°C° 0 mm 1 m/s 758 mmHg 76%
Voir plus

Nous avons besoin de votre consentement

Meteoprog et ses fournisseurs de services peuvent stocker et accéder à des données personnelles telles que des cookies, des identifiants d'appareils ou d'autres technologies similaires sur votre appareil et traiter ces données pour personnaliser le contenu et les publicités, ainsi que pour fournir des fonctionnalités de médias sociaux et analyser le trafic.

  • Stocker et/ou accéder à des informations sur votre appareil

    Des cookies, des identifiants d'appareils ou d'autres informations peuvent être stockés ou accessibles sur votre appareil aux fins indiquées ci-dessus.

  • Annonces et contenus personnalisés, mesure des annonces et des contenus, connaissance de l'audience et développement de produits

    Les annonces et le contenu peuvent être personnalisés en fonction d'un profil. D'autres données peuvent être ajoutées pour mieux personnaliser les annonces et le contenu. Les performances des publicités et du contenu peuvent être mesurées. Il est possible d'obtenir des informations sur le public qui a vu les publicités et le contenu. Ces données peuvent être utilisées pour développer ou améliorer l'expérience de l'utilisateur, les systèmes et les logiciels.

En cliquant sur "J'accepte", vous autorisez l'utilisation de cookies, des identifiants d'appareils, des balises web ou d'autres technologies similaires. Vos paramètres peuvent être modifiés dans le navigateur de votre appareil.

Dans certains cas, des intérêts légitimes peuvent être invoqués plutôt qu'un consentement. Vous pouvez en savoir plus à ce sujet dans notre Politique de confidentialité et de cookies.